2024-04-25T00:00:00,axn,27.47
2024-04-25T00:01:00,axn,27.85
2024-04-25T00:02:00,axn,28.06
2024-04-25T00:03:00,axn,27.26
2024-04-25T00:04:00,axn,27.17
2024-04-25T00:05:00,axn,27.48
2024-04-25T00:06:00,axn,32.41
2024-04-25T00:07:00,axn,27.02
2024-04-25T00:08:00,axn,27.34
2024-04-25T00:09:00,axn,28.31
2024-04-25T00:10:00,axn,27.25
2024-04-25T00:11:00,axn,27.35
2024-04-25T00:12:00,axn,30.06
2024-04-25T00:13:00,axn,28.12
2024-04-25T00:14:00,axn,27.63
2024-04-25T00:15:00,axn,29.59
2024-04-25T00:16:00,axn,27.32
2024-04-25T00:17:00,axn,27.41
2024-04-25T00:18:00,axn,27.61
2024-04-25T00:19:00,axn,27.23
2024-04-25T00:20:00,axn,27.12
2024-04-25T00:21:00,axn,27.18
2024-04-25T00:22:00,axn,27.09
2024-04-25T00:23:00,axn,27.53
2024-04-25T00:24:00,axn,27.15
2024-04-25T00:25:00,axn,27.13
2024-04-25T00:26:00,axn,27.11
2024-04-25T00:27:00,axn,27.35
2024-04-25T00:28:00,axn,27.41
2024-04-25T00:29:00,axn,27.26
2024-04-25T00:30:00,axn,27.41
2024-04-25T00:31:00,axn,27.30
2024-04-25T00:32:00,axn,27.49
2024-04-25T00:33:00,axn,27.50
2024-04-25T00:34:00,axn,27.32
2024-04-25T00:35:00,axn,27.31
2024-04-25T00:36:00,axn,27.39
2024-04-25T00:37:00,axn,27.67
2024-04-25T00:38:00,axn,27.34
2024-04-25T00:39:00,axn,27.82
2024-04-25T00:40:00,axn,27.56
2024-04-25T00:41:00,axn,27.55
2024-04-25T00:42:00,axn,27.46
2024-04-25T00:43:00,axn,27.61
2024-04-25T00:44:00,axn,27.96
2024-04-25T00:45:00,axn,27.94
2024-04-25T00:46:00,axn,28.13
2024-04-25T00:47:00,axn,27.76
2024-04-25T00:48:00,axn,30.56
2024-04-25T00:49:00,axn,30.65
2024-04-25T00:50:00,axn,27.71
2024-04-25T00:51:00,axn,28.07
2024-04-25T00:52:00,axn,27.72
2024-04-25T00:53:00,axn,27.59
2024-04-25T00:54:00,axn,27.69
2024-04-25T00:55:00,axn,27.98
2024-04-25T00:56:00,axn,28.00
2024-04-25T00:57:00,axn,27.70
2024-04-25T00:58:00,axn,27.54
2024-04-25T00:59:00,axn,27.72
2024-04-25T01:00:00,axn,27.52
2024-04-25T01:01:00,axn,27.81
2024-04-25T01:02:00,axn,28.08
2024-04-25T01:03:00,axn,27.87
2024-04-25T01:04:00,axn,27.32
2024-04-25T01:05:00,axn,27.47
2024-04-25T01:06:00,axn,27.71
2024-04-25T01:07:00,axn,27.88
2024-04-25T01:08:00,axn,27.73
2024-04-25T01:09:00,axn,27.93
2024-04-25T01:10:00,axn,27.92
2024-04-25T01:11:00,axn,28.02
2024-04-25T01:12:00,axn,28.35
2024-04-25T01:13:00,axn,27.96
2024-04-25T01:14:00,axn,38.45
2024-04-25T01:15:00,axn,27.79
2024-04-25T01:16:00,axn,27.76
2024-04-25T01:17:00,axn,27.72
2024-04-25T01:18:00,axn,27.56
2024-04-25T01:19:00,axn,42.45
2024-04-25T01:20:00,axn,42.18
2024-04-25T01:21:00,axn,42.28
2024-04-25T01:22:00,axn,42.22
2024-04-25T01:23:00,axn,41.96
2024-04-25T01:24:00,axn,41.90
2024-04-25T01:25:00,axn,27.61
2024-04-25T01:26:00,axn,27.51
2024-04-25T01:27:00,axn,27.63
2024-04-25T01:28:00,axn,27.49
2024-04-25T01:29:00,axn,27.51
2024-04-25T01:30:00,axn,28.04
2024-04-25T01:31:00,axn,27.90
2024-04-25T01:32:00,axn,27.51
2024-04-25T01:33:00,axn,27.97
2024-04-25T01:34:00,axn,27.76
2024-04-25T01:35:00,axn,27.69
2024-04-25T01:36:00,axn,28.31
2024-04-25T01:37:00,axn,27.92
2024-04-25T01:38:00,axn,28.11
2024-04-25T01:39:00,axn,27.45
2024-04-25T01:40:00,axn,27.61
2024-04-25T01:41:00,axn,28.08
2024-04-25T01:42:00,axn,27.60
2024-04-25T01:43:00,axn,27.60
2024-04-25T01:44:00,axn,27.45
2024-04-25T01:45:00,axn,28.27
2024-04-25T01:46:00,axn,27.66
2024-04-25T01:47:00,axn,27.70
2024-04-25T01:48:00,axn,27.50
2024-04-25T01:49:00,axn,27.45
2024-04-25T01:50:00,axn,27.47
2024-04-25T01:51:00,axn,27.51
2024-04-25T01:52:00,axn,27.91
2024-04-25T01:53:00,axn,27.86
2024-04-25T01:54:00,axn,27.85
2024-04-25T01:55:00,axn,27.17
2024-04-25T01:56:00,axn,27.04
2024-04-25T01:57:00,axn,27.18
2024-04-25T01:58:00,axn,26.91
2024-04-25T01:59:00,axn,27.26
2024-04-25T02:00:00,axn,27.10
2024-04-25T02:01:00,axn,26.99
2024-04-25T02:02:00,axn,27.28
2024-04-25T02:03:00,axn,27.08
2024-04-25T02:04:00,axn,27.70
2024-04-25T02:05:00,axn,27.46
2024-04-25T02:06:00,axn,27.16
2024-04-25T02:07:00,axn,27.16
2024-04-25T02:08:00,axn,27.23
2024-04-25T02:09:00,axn,27.58
2024-04-25T02:10:00,axn,27.41
2024-04-25T02:11:00,axn,27.20
2024-04-25T02:12:00,axn,27.61
2024-04-25T02:13:00,axn,27.35
2024-04-25T02:14:00,axn,27.33
2024-04-25T02:15:00,axn,27.60
2024-04-25T02:16:00,axn,27.67
2024-04-25T02:17:00,axn,27.63
2024-04-25T02:18:00,axn,27.56
2024-04-25T02:19:00,axn,27.85
2024-04-25T02:20:00,axn,27.46
2024-04-25T02:21:00,axn,27.52
2024-04-25T02:22:00,axn,27.65
2024-04-25T02:23:00,axn,27.58
2024-04-25T02:24:00,axn,27.69
2024-04-25T02:25:00,axn,27.70
2024-04-25T02:26:00,axn,27.94
2024-04-25T02:27:00,axn,27.54
2024-04-25T02:28:00,axn,27.69
2024-04-25T02:29:00,axn,27.50
2024-04-25T02:30:00,axn,27.35
2024-04-25T02:31:00,axn,27.41
2024-04-25T02:32:00,axn,27.22
2024-04-25T02:33:00,axn,27.11
2024-04-25T02:34:00,axn,27.76
2024-04-25T02:35:00,axn,27.13
2024-04-25T02:36:00,axn,27.11
2024-04-25T02:37:00,axn,27.60
2024-04-25T02:38:00,axn,27.24
2024-04-25T02:39:00,axn,27.31
2024-04-25T02:40:00,axn,27.34
2024-04-25T02:41:00,axn,27.25
2024-04-25T02:42:00,axn,26.91
2024-04-25T02:43:00,axn,26.91
2024-04-25T02:44:00,axn,27.53
2024-04-25T02:45:00,axn,27.12
2024-04-25T02:46:00,axn,27.17
2024-04-25T02:47:00,axn,27.70
2024-04-25T02:48:00,axn,27.24
2024-04-25T02:49:00,axn,26.96
2024-04-25T02:50:00,axn,26.86
2024-04-25T02:51:00,axn,27.13
2024-04-25T02:52:00,axn,27.18
2024-04-25T02:53:00,axn,27.33
2024-04-25T02:54:00,axn,27.39
2024-04-25T02:55:00,axn,27.52
2024-04-25T02:56:00,axn,27.14
2024-04-25T02:57:00,axn,27.28
2024-04-25T02:58:00,axn,27.22
2024-04-25T02:59:00,axn,27.35
2024-04-25T03:00:00,axn,27.44
2024-04-25T03:01:00,axn,27.15
2024-04-25T03:02:00,axn,27.13
2024-04-25T03:03:00,axn,26.97
2024-04-25T03:04:00,axn,27.20
2024-04-25T03:05:00,axn,27.06
2024-04-25T03:06:00,axn,27.11
2024-04-25T03:07:00,axn,27.49
2024-04-25T03:08:00,axn,27.11
2024-04-25T03:09:00,axn,27.82
2024-04-25T03:10:00,axn,27.14
2024-04-25T03:11:00,axn,27.26
2024-04-25T03:12:00,axn,27.32
2024-04-25T03:13:00,axn,26.84
2024-04-25T03:14:00,axn,26.73
2024-04-25T03:15:00,axn,27.00
2024-04-25T03:16:00,axn,26.83
2024-04-25T03:17:00,axn,26.95
2024-04-25T03:18:00,axn,26.98
2024-04-25T03:19:00,axn,27.20
2024-04-25T03:20:00,axn,26.87
2024-04-25T03:21:00,axn,27.01
2024-04-25T03:22:00,axn,26.79
2024-04-25T03:23:00,axn,26.91
2024-04-25T03:24:00,axn,26.68
2024-04-25T03:25:00,axn,26.67
2024-04-25T03:26:00,axn,26.74
2024-04-25T03:27:00,axn,26.96
2024-04-25T03:28:00,axn,26.97
2024-04-25T03:29:00,axn,26.94
2024-04-25T03:30:00,axn,27.00
2024-04-25T03:31:00,axn,26.80
2024-04-25T03:32:00,axn,27.24
2024-04-25T03:33:00,axn,26.88
2024-04-25T03:34:00,axn,26.92
2024-04-25T03:35:00,axn,26.85
2024-04-25T03:36:00,axn,26.90
2024-04-25T03:37:00,axn,27.25
2024-04-25T03:38:00,axn,26.62
2024-04-25T03:39:00,axn,32.62
2024-04-25T03:40:00,axn,31.73
2024-04-25T03:41:00,axn,31.72
2024-04-25T03:42:00,axn,27.18
2024-04-25T03:43:00,axn,27.46
2024-04-25T03:44:00,axn,27.10
2024-04-25T03:45:00,axn,27.02
2024-04-25T03:46:00,axn,27.15
2024-04-25T03:47:00,axn,27.10
2024-04-25T03:48:00,axn,27.27
2024-04-25T03:49:00,axn,27.25
2024-04-25T03:50:00,axn,27.05
2024-04-25T03:51:00,axn,27.01
2024-04-25T03:52:00,axn,26.96
2024-04-25T03:53:00,axn,26.97
2024-04-25T03:54:00,axn,27.03
2024-04-25T03:55:00,axn,27.20
2024-04-25T03:56:00,axn,26.97
2024-04-25T03:57:00,axn,27.23
2024-04-25T03:58:00,axn,27.40
2024-04-25T03:59:00,axn,27.02
2024-04-25T04:00:00,axn,27.77
2024-04-25T04:01:00,axn,26.98
2024-04-25T04:02:00,axn,26.73
2024-04-25T04:03:00,axn,27.05
2024-04-25T04:04:00,axn,26.81
2024-04-25T04:05:00,axn,27.18
2024-04-25T04:06:00,axn,26.56
2024-04-25T04:07:00,axn,26.68
2024-04-25T04:08:00,axn,26.52
2024-04-25T04:09:00,axn,26.88
2024-04-25T04:10:00,axn,27.09
2024-04-25T04:11:00,axn,29.16
2024-04-25T04:12:00,axn,29.14
2024-04-25T04:13:00,axn,26.30
2024-04-25T04:14:00,axn,26.21
2024-04-25T04:15:00,axn,26.18
2024-04-25T04:16:00,axn,26.50
2024-04-25T04:17:00,axn,26.69
2024-04-25T04:18:00,axn,26.54
2024-04-25T04:19:00,axn,26.80
2024-04-25T04:20:00,axn,26.48
2024-04-25T04:21:00,axn,26.48
2024-04-25T04:22:00,axn,26.44
2024-04-25T04:23:00,axn,26.40
2024-04-25T04:24:00,axn,26.45
2024-04-25T04:25:00,axn,26.48
2024-04-25T04:26:00,axn,26.47
2024-04-25T04:27:00,axn,26.46
2024-04-25T04:28:00,axn,26.89
2024-04-25T04:29:00,axn,26.60
2024-04-25T04:30:00,axn,26.76
2024-04-25T04:31:00,axn,26.70
2024-04-25T04:32:00,axn,26.64
2024-04-25T04:33:00,axn,26.58
2024-04-25T04:34:00,axn,26.57
2024-04-25T04:35:00,axn,26.56
2024-04-25T04:36:00,axn,26.85
2024-04-25T04:37:00,axn,32.68
2024-04-25T04:38:00,axn,32.96
2024-04-25T04:39:00,axn,33.00
2024-04-25T04:40:00,axn,33.03
2024-04-25T04:41:00,axn,26.93
2024-04-25T04:42:00,axn,27.82
2024-04-25T04:43:00,axn,28.34
2024-04-25T04:44:00,axn,28.59
2024-04-25T04:45:00,axn,28.68
2024-04-25T04:46:00,axn,28.70
2024-04-25T04:47:00,axn,28.42
2024-04-25T04:48:00,axn,28.54
2024-04-25T04:49:00,axn,28.62
2024-04-25T04:50:00,axn,28.53
2024-04-25T04:51:00,axn,31.92
2024-04-25T04:52:00,axn,28.38
2024-04-25T04:53:00,axn,28.12
2024-04-25T04:54:00,axn,28.14
2024-04-25T04:55:00,axn,28.75
2024-04-25T04:56:00,axn,28.29
2024-04-25T04:57:00,axn,28.18
2024-04-25T04:58:00,axn,38.75
2024-04-25T04:59:00,axn,38.45
2024-04-25T05:00:00,axn,38.41
2024-04-25T05:01:00,axn,36.24
2024-04-25T05:02:00,axn,30.30
2024-04-25T05:03:00,axn,30.49
2024-04-25T05:04:00,axn,30.55
2024-04-25T05:05:00,axn,30.44
2024-04-25T05:06:00,axn,30.51
2024-04-25T05:07:00,axn,30.50
2024-04-25T05:08:00,axn,30.23
2024-04-25T05:09:00,axn,30.49
2024-04-25T05:10:00,axn,25.74
2024-04-25T05:11:00,axn,26.28
2024-04-25T05:12:00,axn,25.96
2024-04-25T05:13:00,axn,26.18
2024-04-25T05:14:00,axn,25.87
2024-04-25T05:15:00,axn,25.89
2024-04-25T05:16:00,axn,26.27
2024-04-25T05:17:00,axn,25.98
2024-04-25T05:18:00,axn,25.68
2024-04-25T05:19:00,axn,25.52
2024-04-25T05:20:00,axn,25.80
2024-04-25T05:21:00,axn,25.99
2024-04-25T05:22:00,axn,25.90
2024-04-25T05:23:00,axn,25.88
2024-04-25T05:24:00,axn,26.35
2024-04-25T05:25:00,axn,25.59
2024-04-25T05:26:00,axn,25.69
2024-04-25T05:27:00,axn,25.79
2024-04-25T05:28:00,axn,30.28
2024-04-25T05:29:00,axn,25.63
2024-04-25T05:30:00,axn,25.77
2024-04-25T05:31:00,axn,26.88
2024-04-25T05:32:00,axn,26.84
2024-04-25T05:33:00,axn,26.98
2024-04-25T05:34:00,axn,26.80
2024-04-25T05:35:00,axn,26.84
2024-04-25T05:36:00,axn,26.78
2024-04-25T05:37:00,axn,26.99
2024-04-25T05:38:00,axn,26.76
2024-04-25T05:39:00,axn,26.80
2024-04-25T05:40:00,axn,26.91
2024-04-25T05:41:00,axn,26.63
2024-04-25T05:42:00,axn,26.43
2024-04-25T05:43:00,axn,26.73
2024-04-25T05:44:00,axn,26.54
2024-04-25T05:45:00,axn,26.58
2024-04-25T05:46:00,axn,26.28
2024-04-25T05:47:00,axn,26.59
2024-04-25T05:48:00,axn,26.70
2024-04-25T05:49:00,axn,26.99
2024-04-25T05:50:00,axn,26.53
2024-04-25T05:51:00,axn,26.43
2024-04-25T05:52:00,axn,26.17
2024-04-25T05:53:00,axn,26.51
2024-04-25T05:54:00,axn,26.51
2024-04-25T05:55:00,axn,27.15
2024-04-25T05:56:00,axn,26.69
2024-04-25T05:57:00,axn,31.62
2024-04-25T05:58:00,axn,27.06
2024-04-25T05:59:00,axn,27.28
2024-04-25T06:00:00,axn,27.38
2024-04-25T06:01:00,axn,29.13
2024-04-25T06:02:00,axn,28.87
2024-04-25T06:03:00,axn,28.97
2024-04-25T06:04:00,axn,28.58
2024-04-25T06:05:00,axn,28.64
2024-04-25T06:06:00,axn,29.25
2024-04-25T06:07:00,axn,30.01
2024-04-25T06:08:00,axn,30.42
2024-04-25T06:09:00,axn,30.05
2024-04-25T06:10:00,axn,29.67
2024-04-25T06:11:00,axn,29.93
2024-04-25T06:12:00,axn,29.68
2024-04-25T06:13:00,axn,29.25
2024-04-25T06:14:00,axn,29.16
2024-04-25T06:15:00,axn,28.97
2024-04-25T06:16:00,axn,28.89
2024-04-25T06:17:00,axn,28.90
2024-04-25T06:18:00,axn,29.05
2024-04-25T06:19:00,axn,29.00
2024-04-25T06:20:00,axn,29.25
2024-04-25T06:21:00,axn,28.99
2024-04-25T06:22:00,axn,29.09
2024-04-25T06:23:00,axn,28.69
2024-04-25T06:24:00,axn,29.14
2024-04-25T06:25:00,axn,28.60
2024-04-25T06:26:00,axn,28.94
2024-04-25T06:27:00,axn,33.34
2024-04-25T06:28:00,axn,33.20
2024-04-25T06:29:00,axn,28.70
2024-04-25T06:30:00,axn,28.92
2024-04-25T06:31:00,axn,28.39
2024-04-25T06:32:00,axn,28.46
2024-04-25T06:33:00,axn,28.50
2024-04-25T06:34:00,axn,28.36
2024-04-25T06:35:00,axn,28.25
2024-04-25T06:36:00,axn,29.08
2024-04-25T06:37:00,axn,29.48
2024-04-25T06:38:00,axn,28.72
2024-04-25T06:39:00,axn,28.73
2024-04-25T06:40:00,axn,28.60
2024-04-25T06:41:00,axn,28.53
2024-04-25T06:42:00,axn,28.66
2024-04-25T06:43:00,axn,28.51
2024-04-25T06:44:00,axn,29.01
2024-04-25T06:45:00,axn,43.50
2024-04-25T06:46:00,axn,28.84
2024-04-25T06:47:00,axn,29.04
2024-04-25T06:48:00,axn,43.14
2024-04-25T06:49:00,axn,42.55
2024-04-25T06:50:00,axn,42.64
2024-04-25T06:51:00,axn,41.81
2024-04-25T06:52:00,axn,42.08
2024-04-25T06:53:00,axn,28.63
2024-04-25T06:54:00,axn,29.15
2024-04-25T06:55:00,axn,28.72
2024-04-25T06:56:00,axn,28.78
2024-04-25T06:57:00,axn,28.78
2024-04-25T06:58:00,axn,29.20
2024-04-25T06:59:00,axn,28.66
2024-04-25T07:00:00,axn,33.20
2024-04-25T07:01:00,axn,31.82
2024-04-25T07:02:00,axn,35.47
2024-04-25T07:03:00,axn,37.71
2024-04-25T07:04:00,axn,36.98
2024-04-25T07:05:00,axn,33.15
2024-04-25T07:06:00,axn,37.41
2024-04-25T07:07:00,axn,36.37
2024-04-25T07:08:00,axn,34.01
2024-04-25T07:09:00,axn,35.70
2024-04-25T07:10:00,axn,35.73
2024-04-25T07:11:00,axn,35.43
2024-04-25T07:12:00,axn,36.35
2024-04-25T07:13:00,axn,35.17
2024-04-25T07:14:00,axn,35.40
2024-04-25T07:15:00,axn,37.86
2024-04-25T07:16:00,axn,38.85
2024-04-25T07:17:00,axn,39.01
2024-04-25T07:18:00,axn,40.02
2024-04-25T07:19:00,axn,38.65
2024-04-25T07:20:00,axn,38.84
2024-04-25T07:21:00,axn,39.10
2024-04-25T07:22:00,axn,39.04
2024-04-25T07:23:00,axn,39.06
2024-04-25T07:24:00,axn,38.82
2024-04-25T07:25:00,axn,39.09
2024-04-25T07:26:00,axn,38.94
2024-04-25T07:27:00,axn,38.79
2024-04-25T07:28:00,axn,38.87
2024-04-25T07:29:00,axn,38.32
2024-04-25T07:30:00,axn,38.48
2024-04-25T07:31:00,axn,43.26
2024-04-25T07:32:00,axn,42.95
2024-04-25T07:33:00,axn,38.59
2024-04-25T07:34:00,axn,44.04
2024-04-25T07:35:00,axn,39.59
2024-04-25T07:36:00,axn,39.40
2024-04-25T07:37:00,axn,38.34
2024-04-25T07:38:00,axn,38.27
2024-04-25T07:39:00,axn,38.31
2024-04-25T07:40:00,axn,38.32
2024-04-25T07:41:00,axn,49.38
2024-04-25T07:42:00,axn,39.19
2024-04-25T07:43:00,axn,39.21
2024-04-25T07:44:00,axn,38.39
2024-04-25T07:45:00,axn,39.14
2024-04-25T07:46:00,axn,38.72
2024-04-25T07:47:00,axn,38.59
2024-04-25T07:48:00,axn,38.81
2024-04-25T07:49:00,axn,38.94
2024-04-25T07:50:00,axn,39.19
2024-04-25T07:51:00,axn,39.37
2024-04-25T07:52:00,axn,39.27
2024-04-25T07:53:00,axn,40.17
2024-04-25T07:54:00,axn,40.30
2024-04-25T07:55:00,axn,39.58
2024-04-25T07:56:00,axn,43.09
2024-04-25T07:57:00,axn,42.69
2024-04-25T07:58:00,axn,39.40
2024-04-25T07:59:00,axn,39.58
2024-04-25T08:00:00,axn,39.49
2024-04-25T08:01:00,axn,45.82
2024-04-25T08:02:00,axn,46.12
2024-04-25T08:03:00,axn,41.21
2024-04-25T08:04:00,axn,41.80
2024-04-25T08:05:00,axn,41.30
2024-04-25T08:06:00,axn,42.00
2024-04-25T08:07:00,axn,41.71
2024-04-25T08:08:00,axn,41.83
2024-04-25T08:09:00,axn,41.41
2024-04-25T08:10:00,axn,41.88
2024-04-25T08:11:00,axn,41.92
2024-04-25T08:12:00,axn,42.31
2024-04-25T08:13:00,axn,42.40
2024-04-25T08:14:00,axn,42.56
2024-04-25T08:15:00,axn,41.19
2024-04-25T08:16:00,axn,41.08
2024-04-25T08:17:00,axn,41.84
2024-04-25T08:18:00,axn,41.26
2024-04-25T08:19:00,axn,41.01
2024-04-25T08:20:00,axn,40.94
2024-04-25T08:21:00,axn,41.53
2024-04-25T08:22:00,axn,41.51
2024-04-25T08:23:00,axn,41.37
2024-04-25T08:24:00,axn,45.68
2024-04-25T08:25:00,axn,45.51
2024-04-25T08:26:00,axn,40.92
2024-04-25T08:27:00,axn,41.24
2024-04-25T08:28:00,axn,40.50
2024-04-25T08:29:00,axn,41.52
2024-04-25T08:30:00,axn,41.00
2024-04-25T08:31:00,axn,40.79
2024-04-25T08:32:00,axn,41.18
2024-04-25T08:33:00,axn,41.56
2024-04-25T08:34:00,axn,41.20
2024-04-25T08:35:00,axn,41.85
2024-04-25T08:36:00,axn,41.63
2024-04-25T08:37:00,axn,41.34
2024-04-25T08:38:00,axn,41.12
2024-04-25T08:39:00,axn,41.15
2024-04-25T08:40:00,axn,41.81
2024-04-25T08:41:00,axn,41.17
2024-04-25T08:42:00,axn,41.25
2024-04-25T08:43:00,axn,41.08
2024-04-25T08:44:00,axn,41.51
2024-04-25T08:45:00,axn,41.04
2024-04-25T08:46:00,axn,41.08
2024-04-25T08:47:00,axn,41.24
2024-04-25T08:48:00,axn,42.36
2024-04-25T08:49:00,axn,41.69
2024-04-25T08:50:00,axn,41.18
2024-04-25T08:51:00,axn,41.24
2024-04-25T08:52:00,axn,45.46
2024-04-25T08:53:00,axn,45.69
2024-04-25T08:54:00,axn,41.02
2024-04-25T08:55:00,axn,41.37
2024-04-25T08:56:00,axn,41.92
2024-04-25T08:57:00,axn,41.82
2024-04-25T08:58:00,axn,40.87
2024-04-25T08:59:00,axn,41.02
2024-04-25T09:00:00,axn,40.75
2024-04-25T09:01:00,axn,41.68
2024-04-25T09:02:00,axn,41.53
2024-04-25T09:03:00,axn,40.83
2024-04-25T09:04:00,axn,40.91
2024-04-25T09:05:00,axn,40.82
2024-04-25T09:06:00,axn,41.70
2024-04-25T09:07:00,axn,41.10
2024-04-25T09:08:00,axn,41.15
2024-04-25T09:09:00,axn,41.37
2024-04-25T09:10:00,axn,41.03
2024-04-25T09:11:00,axn,41.06
2024-04-25T09:12:00,axn,41.04
2024-04-25T09:13:00,axn,40.78
2024-04-25T09:14:00,axn,40.92
2024-04-25T09:15:00,axn,41.60
2024-04-25T09:16:00,axn,41.10
2024-04-25T09:17:00,axn,41.26
2024-04-25T09:18:00,axn,41.01
2024-04-25T09:19:00,axn,41.04
2024-04-25T09:20:00,axn,45.67
2024-04-25T09:21:00,axn,45.77
2024-04-25T09:22:00,axn,41.08
2024-04-25T09:23:00,axn,41.96
2024-04-25T09:24:00,axn,41.36
2024-04-25T09:25:00,axn,40.83
2024-04-25T09:26:00,axn,40.93
2024-04-25T09:27:00,axn,41.73
2024-04-25T09:28:00,axn,41.96
2024-04-25T09:29:00,axn,42.26
2024-04-25T09:30:00,axn,41.23
2024-04-25T09:31:00,axn,41.09
2024-04-25T09:32:00,axn,41.79
2024-04-25T09:33:00,axn,42.80
2024-04-25T09:34:00,axn,42.24
2024-04-25T09:35:00,axn,41.45
2024-04-25T09:36:00,axn,46.50
2024-04-25T09:37:00,axn,41.58
2024-04-25T09:38:00,axn,41.89
2024-04-25T09:39:00,axn,40.80
2024-04-25T09:40:00,axn,41.85
2024-04-25T09:41:00,axn,41.51
2024-04-25T09:42:00,axn,42.39
2024-04-25T09:43:00,axn,41.98
2024-04-25T09:44:00,axn,47.66
2024-04-25T09:45:00,axn,46.75
2024-04-25T09:46:00,axn,42.54
2024-04-25T09:47:00,axn,43.00
2024-04-25T09:48:00,axn,42.95
2024-04-25T09:49:00,axn,43.47
2024-04-25T09:50:00,axn,43.22
2024-04-25T09:51:00,axn,41.96
2024-04-25T09:52:00,axn,42.32
2024-04-25T09:53:00,axn,42.33
2024-04-25T09:54:00,axn,42.70
2024-04-25T09:55:00,axn,42.41
2024-04-25T09:56:00,axn,42.41
2024-04-25T09:57:00,axn,42.49
2024-04-25T09:58:00,axn,42.85
2024-04-25T09:59:00,axn,42.93
2024-04-25T10:00:00,axn,43.65
2024-04-25T10:01:00,axn,43.45
2024-04-25T10:02:00,axn,43.51
2024-04-25T10:03:00,axn,43.46
2024-04-25T10:04:00,axn,43.20
2024-04-25T10:05:00,axn,43.43
2024-04-25T10:06:00,axn,43.26
2024-04-25T10:07:00,axn,43.68
2024-04-25T10:08:00,axn,43.61
2024-04-25T10:09:00,axn,47.96
2024-04-25T10:10:00,axn,47.86
2024-04-25T10:11:00,axn,44.45
2024-04-25T10:12:00,axn,43.45
2024-04-25T10:13:00,axn,43.54
2024-04-25T10:14:00,axn,44.52
2024-04-25T10:15:00,axn,43.30
2024-04-25T10:16:00,axn,43.56
2024-04-25T10:17:00,axn,43.55
2024-04-25T10:18:00,axn,43.40
2024-04-25T10:19:00,axn,43.34
2024-04-25T10:20:00,axn,46.27
2024-04-25T10:21:00,axn,45.90
2024-04-25T10:22:00,axn,43.05
2024-04-25T10:23:00,axn,42.66
2024-04-25T10:24:00,axn,42.66
2024-04-25T10:25:00,axn,43.46
2024-04-25T10:26:00,axn,42.56
2024-04-25T10:27:00,axn,52.92
2024-04-25T10:28:00,axn,52.38
2024-04-25T10:29:00,axn,52.68
2024-04-25T10:30:00,axn,51.91
2024-04-25T10:31:00,axn,52.23
2024-04-25T10:32:00,axn,42.81
2024-04-25T10:33:00,axn,53.66
2024-04-25T10:34:00,axn,43.19
2024-04-25T10:35:00,axn,43.27
2024-04-25T10:36:00,axn,43.51
2024-04-25T10:37:00,axn,47.93
2024-04-25T10:38:00,axn,47.50
2024-04-25T10:39:00,axn,42.56
2024-04-25T10:40:00,axn,42.56
2024-04-25T10:41:00,axn,42.27
2024-04-25T10:42:00,axn,42.79
2024-04-25T10:43:00,axn,42.72
2024-04-25T10:44:00,axn,42.34
2024-04-25T10:45:00,axn,42.05
2024-04-25T10:46:00,axn,42.09
2024-04-25T10:47:00,axn,41.89
2024-04-25T10:48:00,axn,41.81
2024-04-25T10:49:00,axn,42.35
